Location: Prague
(50.0830°N, 14.4670°E)
Time: 04:17:08
(UTC+01:00)

LilacSat-2 - Visible Passes

Search period start: 29 November 2021 00:00
Search period end: 09 December 2021 00:00
Orbit: 511 x 532 km, 97.5° (Epoch: 28 November)

Date Brightness Start Highest point End Pass type
(mag) Time Alt. Az. Time Alt. Az. Time Alt. Az.
29 Nov ? 05:37:42 10° NNE 05:41:25 44° E 05:45:07 10° S visible
29 Nov ? 17:58:17 10° SW 18:00:59 19° W 18:03:43 10° NW visible
30 Nov ? 05:24:53 10° NNE 05:28:24 32° E 05:31:52 10° SSE visible
30 Nov ? 06:59:15 10° N 07:02:27 25° WNW 07:05:40 10° WSW visible
30 Nov ? 17:44:46 10° SSW 17:47:55 25° W 17:51:06 10° NW visible
01 Dec ? 05:12:09 10° NE 05:15:20 24° E 05:18:30 10° SSE visible
01 Dec ? 06:46:05 10° N 06:49:34 33° WNW 06:53:04 10° SW visible
01 Dec ? 17:31:25 10° SSW 17:34:51 34° W 17:38:21 10° NNW visible
02 Dec ? 04:59:33 10° NE 05:02:15 18° E 05:04:58 10° SE visible
02 Dec ? 06:32:58 10° N 06:36:40 45° WNW 06:40:21 10° SW visible
02 Dec ? 17:18:11 10° S 17:21:50 47° W 17:25:31 10° NNW visible
03 Dec ? 04:47:11 10° ENE 04:49:09 13° E 04:51:06 10° ESE visible
03 Dec ? 06:19:54 10° N 06:23:44 63° WNW 06:27:32 10° SSW visible
03 Dec ? 17:05:04 10° S 17:08:48 67° WSW 17:12:37 10° NNW visible
04 Dec ? 06:06:54 10° NNE 06:10:46 87° WNW 06:14:38 10° SSW visible
04 Dec ? 16:52:03 10° SSE 16:55:50 87° ENE 16:59:39 10° NNW visible
05 Dec ? 05:53:55 10° NNE 05:57:47 68° ESE 06:01:38 10° S visible
05 Dec ? 16:39:08 10° SSE 16:42:52 63° ENE 16:46:39 10° N visible
05 Dec ? 18:15:39 10° WSW 18:17:27 13° W 18:19:16 10° WNW visible
06 Dec ? 05:41:01 10° NNE 05:44:46 48° E 05:48:31 10° S visible
06 Dec ? 18:01:45 10° SW 18:04:20 18° W 18:06:57 10° NW visible
07 Dec ? 05:28:09 10° NNE 05:31:44 35° E 05:35:18 10° SSE visible
07 Dec ? 07:02:38 10° N 07:05:46 24° WNW 07:08:54 10° WSW visible
07 Dec ? 17:48:10 10° SSW 17:51:14 23° W 17:54:22 10° NW visible
08 Dec ? 05:15:23 10° NE 05:18:41 26° E 05:21:56 10° SSE visible
08 Dec ? 06:49:25 10° N 06:52:53 31° WNW 06:56:18 10° SW visible
08 Dec ? 17:34:45 10° SSW 17:38:09 32° W 17:41:37 10° NNW visible
